| time (UTC) | temp F | wind direction | speed knots | gust knots | rain 1hr in | rain 24hr in | rain mn in | humidity % | barometer mb |
| 20260507023341 | 57 | 5 | 8.7 | 15.6 | 0.00 | 0.18 | 0.18 | 82 | 1009.4 |
| 20260507022335 | 57 | 333 | 6.1 | 10.4 | 0.00 | 0.18 | 0.18 | 83 | 1009.2 |
| 20260507021316 | 57 | 351 | 4.3 | 9.6 | 0.00 | 0.18 | 0.18 | 83 | 1009.1 |
| 20260507020316 | 57 | 348 | 3.5 | 7.8 | 0.00 | 0.18 | 0.18 | 83 | 1009.2 |
| 20260507015318 | 58 | 98 | 3.5 | 7.0 | 0.00 | 0.18 | 0.18 | 83 | 1009.3 |
| 20260507014320 | 58 | 43 | 0.9 | 7.0 | 0.00 | 0.18 | 0.18 | 83 | 1009.1 |
| 20260507013317 | 59 | 11 | 3.5 | 7.0 | 0.00 | 0.18 | 0.18 | 83 | 1008.8 |
| 20260507012319 | 59 | 333 | 4.3 | 7.0 | 0.00 | 0.18 | 0.18 | 83 | 1008.9 |
| 20260507011340 | 59 | 360 | 4.3 | 10.4 | 0.00 | 0.18 | 0.18 | 83 | 1008.8 |
| 20260507010340 | 59 | 346 | 4.3 | 7.0 | 0.00 | 0.18 | 0.18 | 83 | 1008.9 |
| 20260507005336 | 59 | 338 | 5.2 | 12.2 | 0.00 | 0.18 | 0.18 | 83 | 1009.2 |
| 20260507004314 | 59 | 338 | 3.5 | 8.7 | 0.01 | 0.18 | 0.18 | 84 | 1009.4 |
| 20260507003333 | 60 | 351 | 4.3 | 9.6 | 0.01 | 0.18 | 0.18 | 85 | 1008.9 |
| 20260507002315 | 61 | 5 | 3.5 | 7.0 | 0.01 | 0.18 | 0.18 | 86 | 1008.8 |
| 20260507001355 | 61 | 334 | 2.6 | 4.3 | 0.01 | 0.18 | 0.18 | 86 | 1008.8 |
| 20260507000314 | 61 | 271 | 1.7 | 7.8 | 0.01 | 0.18 | 0.18 | 86 | 1008.7 |
| 20260506235339 | 61 | 329 | 2.6 | 7.8 | 0.01 | 0.18 | 0.18 | 87 | 1008.5 |
| 20260506234319 | 62 | 303 | 3.5 | 7.0 | 0.00 | 0.17 | 0.17 | 88 | 1008.1 |
| 20260506233356 | 63 | 281 | 5.2 | 7.8 | 0.00 | 0.17 | 0.17 | 90 | 1007.9 |
| 20260506232338 | 63 | 319 | 0.9 | 7.0 | 0.00 | 0.17 | 0.17 | 90 | 1007.4 |
| 20260506231339 | 64 | 321 | 2.6 | 6.1 | 0.00 | 0.17 | 0.17 | 91 | 1007.4 |
| 20260506230340 | 64 | 335 | 1.7 | 5.2 | 0.00 | 0.17 | 0.17 | 91 | 1007.2 |
| 20260506225314 | 64 | 297 | 2.6 | 5.2 | 0.00 | 0.17 | 0.17 | 91 | 1007.4 |
| 20260506224327 | 65 | 162 | 0.9 | 2.6 | 0.00 | 0.17 | 0.17 | 91 | 1007.3 |
| 20260506223345 | 65 | 162 | 0.0 | 0.9 | 0.00 | 0.17 | 0.17 | 92 | 1007.0 |
| 20260506222333 | 65 | 162 | 0.9 | 2.6 | 0.00 | 0.17 | 0.17 | 92 | 1006.9 |
| 20260506221318 | 65 | 162 | 0.0 | 0.0 | 0.00 | 0.17 | 0.17 | 92 | 1006.9 |
| 20260506220338 | 65 | 162 | 0.0 | 1.7 | 0.01 | 0.17 | 0.17 | 92 | 1006.9 |
| 20260506215333 | 65 | 286 | 0.9 | 2.6 | 0.01 | 0.17 | 0.17 | 91 | 1006.7 |
| 20260506214314 | 65 | 244 | 0.9 | 2.6 | 0.01 | 0.17 | 0.17 | 91 | 1006.9 |
| 20260506213332 | 65 | 234 | 1.7 | 1.7 | 0.01 | 0.17 | 0.17 | 91 | 1006.7 |
| 20260506212314 | 65 | 234 | 0.0 | 2.6 | 0.01 | 0.17 | 0.17 | 90 | 1006.5 |
| 20260506211340 | 65 | 234 | 0.9 | 3.5 | 0.01 | 0.17 | 0.17 | 90 | 1006.4 |
| 20260506210315 | 66 | 19 | 0.9 | 2.6 | 0.00 | 0.16 | 0.16 | 89 | 1006.1 |
| 20260506205313 | 66 | 264 | 0.9 | 1.7 | 0.00 | 0.16 | 0.16 | 89 | 1005.9 |
| 20260506204339 | 65 | 264 | 0.0 | 2.6 | 0.00 | 0.16 | 0.16 | 89 | 1005.9 |
| 20260506203332 | 65 | 219 | 0.9 | 6.1 | 0.00 | 0.16 | 0.16 | 89 | 1005.8 |
| 20260506202324 | 65 | 151 | 1.7 | 2.6 | 0.00 | 0.16 | 0.16 | 89 | 1005.7 |
| 20260506201339 | 65 | 130 | 0.9 | 2.6 | 0.00 | 0.16 | 0.16 | 89 | 1005.9 |
| 20260506200333 | 65 | 161 | 0.9 | 5.2 | 0.00 | 0.16 | 0.16 | 89 | 1006.0 |
| 20260506195318 | 65 | 154 | 1.7 | 4.3 | 0.00 | 0.16 | 0.16 | 89 | 1006.0 |
| 20260506194315 | 65 | 153 | 2.6 | 4.3 | 0.00 | 0.16 | 0.16 | 89 | 1006.0 |
| 20260506193316 | 65 | 175 | 1.7 | 4.3 | 0.00 | 0.16 | 0.16 | 89 | 1005.9 |
| 20260506192333 | 65 | 194 | 1.7 | 6.1 | 0.00 | 0.16 | 0.16 | 89 | 1006.1 |
| 20260506191317 | 66 | 174 | 2.6 | 6.1 | 0.00 | 0.16 | 0.16 | 90 | 1006.1 |
| 20260506190338 | 66 | 118 | 2.6 | 6.1 | 0.00 | 0.16 | 0.16 | 90 | 1006.1 |
| 20260506185339 | 65 | 158 | 1.7 | 5.2 | 0.00 | 0.16 | 0.16 | 92 | 1006.2 |
| 20260506184342 | 64 | 156 | 1.7 | 4.3 | 0.00 | 0.16 | 0.16 | 90 | 1006.4 |
| 20260506183314 | 64 | 159 | 1.7 | 6.1 | 0.00 | 0.16 | 0.16 | 90 | 1006.5 |
| 20260506182320 | 64 | 146 | 2.6 | 7.0 | 0.00 | 0.16 | 0.16 | 88 | 1006.6 |
| 20260506181338 | 65 | 189 | 3.5 | 7.8 | 0.00 | 0.16 | 0.16 | 88 | 1006.6 |
| 20260506180313 | 65 | 167 | 3.5 | 7.0 | 0.00 | 0.16 | 0.16 | 87 | 1006.5 |
| 20260506175314 | 65 | 223 | 5.2 | 8.7 | 0.00 | 0.16 | 0.16 | 85 | 1006.4 |
| 20260506174314 | 66 | 202 | 5.2 | 9.6 | 0.00 | 0.16 | 0.16 | 85 | 1006.5 |
| 20260506173322 | 65 | 172 | 5.2 | 9.6 | 0.00 | 0.16 | 0.16 | 84 | 1006.3 |
| 20260506172315 | 65 | 181 | 4.3 | 7.8 | 0.00 | 0.16 | 0.16 | 84 | 1006.2 |
| 20260506171318 | 65 | 147 | 4.3 | 10.4 | 0.00 | 0.16 | 0.16 | 83 | 1006.1 |
| 20260506170324 | 65 | 168 | 3.5 | 9.6 | 0.00 | 0.16 | 0.16 | 83 | 1006.2 |
| 20260506165336 | 65 | 178 | 5.2 | 9.6 | 0.00 | 0.16 | 0.16 | 83 | 1006.2 |
| 20260506164316 | 65 | 202 | 5.2 | 10.4 | 0.00 | 0.16 | 0.16 | 82 | 1006.2 |
| 20260506163339 | 65 | 151 | 3.5 | 12.2 | 0.00 | 0.16 | 0.16 | 84 | 1006.2 |
| 20260506162338 | 65 | 221 | 6.1 | 12.2 | 0.00 | 0.16 | 0.16 | 83 | 1006.3 |
| 20260506161349 | 65 | 145 | 6.1 | 10.4 | 0.00 | 0.16 | 0.16 | 85 | 1006.2 |
| 20260506160312 | 64 | 136 | 7.0 | 10.4 | 0.00 | 0.16 | 0.16 | 86 | 1006.2 |
| 20260506155338 | 64 | 150 | 7.8 | 17.4 | 0.00 | 0.16 | 0.16 | 86 | 1006.3 |
| 20260506154314 | 63 | 192 | 6.1 | 13.9 | 0.01 | 0.16 | 0.16 | 87 | 1006.5 |
| 20260506153339 | 64 | 197 | 7.0 | 13.9 | 0.01 | 0.16 | 0.16 | 88 | 1006.4 |
| 20260506152316 | 63 | 217 | 6.1 | 10.4 | 0.02 | 0.16 | 0.16 | 89 | 1006.2 |
| 20260506151327 | 64 | 165 | 5.2 | 13.0 | 0.02 | 0.16 | 0.16 | 91 | 1006.2 |
| 20260506150330 | 63 | 207 | 7.8 | 15.6 | 0.03 | 0.16 | 0.16 | 91 | 1006.2 |
| 20260506145338 | 62 | 159 | 4.3 | 9.6 | 0.04 | 0.16 | 0.16 | 92 | 1006.4 |
| 20260506144312 | 61 | 171 | 6.1 | 12.2 | 0.03 | 0.15 | 0.15 | 91 | 1006.3 |
| 20260506143314 | 61 | 163 | 6.1 | 11.3 | 0.04 | 0.15 | 0.15 | 91 | 1006.4 |
| 20260506142357 | 61 | 140 | 4.3 | 8.7 | 0.04 | 0.14 | 0.14 | 91 | 1006.8 |
| 20260506141313 | 61 | 184 | 6.1 | 15.6 | 0.06 | 0.14 | 0.14 | 90 | 1007.0 |
| 20260506140333 | 61 | 146 | 6.1 | 13.9 | 0.05 | 0.13 | 0.13 | 90 | 1007.0 |
| 20260506135327 | 61 | 173 | 5.2 | 12.2 | 0.04 | 0.12 | 0.12 | 90 | 1006.9 |
| 20260506134355 | 61 | 222 | 6.1 | 13.0 | 0.06 | 0.12 | 0.12 | 90 | 1006.8 |
| 20260506133337 | 61 | 169 | 7.8 | 12.2 | 0.06 | 0.11 | 0.11 | 90 | 1006.7 |
| 20260506132355 | 61 | 136 | 6.1 | 12.2 | 0.05 | 0.10 | 0.10 | 89 | 1006.7 |
| 20260506131313 | 61 | 175 | 8.7 | 13.0 | 0.03 | 0.08 | 0.08 | 89 | 1006.8 |
| 20260506130330 | 61 | 164 | 7.0 | 12.2 | 0.04 | 0.08 | 0.08 | 89 | 1006.9 |
| 20260506125332 | 61 | 153 | 6.1 | 9.6 | 0.05 | 0.08 | 0.08 | 88 | 1006.9 |
| 20260506124333 | 61 | 208 | 7.0 | 14.8 | 0.04 | 0.06 | 0.06 | 87 | 1006.9 |
| 20260506123330 | 61 | 171 | 5.2 | 12.2 | 0.03 | 0.05 | 0.05 | 87 | 1006.8 |
| 20260506122316 | 61 | 188 | 6.1 | 12.2 | 0.04 | 0.05 | 0.05 | 86 | 1006.8 |
| 20260506121338 | 61 | 132 | 7.8 | 13.9 | 0.04 | 0.05 | 0.05 | 86 | 1006.9 |
| 20260506120314 | 61 | 128 | 6.1 | 14.8 | 0.04 | 0.04 | 0.04 | 85 | 1007.1 |
| 20260506115336 | 61 | 148 | 6.1 | 9.6 | 0.03 | 0.03 | 0.03 | 84 | 1007.1 |
| 20260506114312 | 62 | 190 | 5.2 | 13.0 | 0.02 | 0.02 | 0.02 | 82 | 1007.3 |
| 20260506113335 | 62 | 121 | 7.0 | 13.0 | 0.02 | 0.02 | 0.02 | 81 | 1007.1 |
| 20260506112337 | 62 | 123 | 5.2 | 9.6 | 0.01 | 0.01 | 0.01 | 79 | 1007.2 |
| 20260506111315 | 63 | 151 | 6.1 | 10.4 | 0.00 | 0.00 | 0.00 | 77 | 1007.2 |
| 20260506110316 | 64 | 178 | 4.3 | 8.7 | 0.00 | 0.00 | 0.00 | 74 | 1006.9 |
| 20260506105338 | 64 | 107 | 6.1 | 10.4 | 0.00 | 0.00 | 0.00 | 73 | 1006.8 |
| 20260506104335 | 64 | 204 | 7.0 | 12.2 | 0.00 | 0.00 | 0.00 | 71 | 1006.6 |
| 20260506103333 | 64 | 162 | 6.1 | 13.0 | 0.00 | 0.00 | 0.00 | 70 | 1006.4 |
| 20260506102336 | 64 | 148 | 6.1 | 14.8 | 0.00 | 0.00 | 0.00 | 69 | 1006.4 |
| 20260506101339 | 65 | 184 | 7.0 | 12.2 | 0.00 | 0.00 | 0.00 | 68 | 1006.1 |
| 20260506100331 | 66 | 145 | 6.1 | 12.2 | 0.00 | 0.00 | 0.00 | 66 | 1006.0 |
| 20260506095345 | 66 | 173 | 7.0 | 13.9 | 0.00 | 0.00 | 0.00 | 63 | 1006.0 |
| 20260506094331 | 66 | 147 | 7.0 | 13.0 | 0.00 | 0.00 | 0.00 | 62 | 1005.9 |
| 20260506093311 | 66 | 160 | 7.0 | 12.2 | 0.00 | 0.00 | 0.00 | 61 | 1005.9 |
| 20260506092336 | 66 | 132 | 6.1 | 11.3 | 0.00 | 0.00 | 0.00 | 60 | 1006.0 |
| 20260506091312 | 67 | 146 | 6.1 | 10.4 | 0.00 | 0.00 | 0.00 | 60 | 1006.1 |
| 20260506090314 | 67 | 107 | 7.0 | 13.0 | 0.00 | 0.00 | 0.00 | 59 | 1006.1 |
| 20260506085314 | 67 | 192 | 8.7 | 13.0 | 0.00 | 0.00 | 0.00 | 59 | 1006.1 |
| 20260506084334 | 67 | 157 | 5.2 | 13.9 | 0.00 | 0.00 | 0.00 | 59 | 1006.3 |
| 20260506083401 | 67 | 177 | 6.1 | 12.2 | 0.00 | 0.00 | 0.00 | 60 | 1006.3 |
| 20260506082320 | 67 | 180 | 7.8 | 13.0 | 0.00 | 0.00 | 0.00 | 59 | 1006.4 |
| 20260506081320 | 67 | 243 | 5.2 | 13.0 | 0.00 | 0.00 | 0.00 | 59 | 1006.4 |
| 20260506080320 | 67 | 142 | 6.1 | 13.9 | 0.00 | 0.00 | 0.00 | 59 | 1006.3 |
| 20260506073340 | 67 | 148 | 5.2 | 12.2 | 0.00 | 0.00 | 0.00 | 56 | 1006.2 |
| 20260506072341 | 67 | 171 | 4.3 | 12.2 | 0.00 | 0.00 | 0.00 | 55 | 1006.3 |
| 20260506071317 | 68 | 232 | 5.2 | 10.4 | 0.00 | 0.00 | 0.00 | 53 | 1006.4 |
| 20260506070319 | 69 | 155 | 7.0 | 13.0 | 0.00 | 0.00 | 0.00 | 52 | 1006.4 |
| 20260506062342 | 69 | 142 | 6.1 | 14.8 | 0.00 | 0.00 | 0.00 | 49 | 1006.9 |
| 20260506061317 | 70 | 147 | 7.0 | 13.0 | 0.00 | 0.00 | 0.00 | 48 | 1007.0 |
| 20260506060318 | 70 | 205 | 7.0 | 10.4 | 0.00 | 0.00 | 0.00 | 48 | 1007.1 |
| 20260506051318 | 70 | 213 | 7.0 | 11.3 | 0.00 | 0.00 | 0.00 | 45 | 1007.5 |
| 20260506050318 | 70 | 149 | 5.2 | 14.8 | 0.00 | 0.00 | 0.00 | 45 | 1007.7 |
| 20260506044326 | 70 | 154 | 5.2 | 13.0 | 0.00 | 0.00 | 0.00 | 45 | 1007.7 |
| 20260506043325 | 70 | 196 | 6.1 | 9.6 | 0.00 | 0.00 | 0.00 | 45 | 1007.7 |
| 20260506042332 | 70 | 190 | 5.2 | 9.6 | 0.00 | 0.00 | 0.00 | 45 | 1007.6 |
| 20260506041315 | 70 | 180 | 7.0 | 12.2 | 0.00 | 0.00 | 0.00 | 44 | 1007.6 |
| 20260506040317 | 71 | 196 | 4.3 | 10.4 | 0.00 | 0.00 | 0.00 | 44 | 1007.6 |
| 20260506035319 | 71 | 213 | 4.3 | 7.8 | 0.00 | 0.00 | 0.00 | 43 | 1007.5 |
| 20260506034336 | 71 | 162 | 4.3 | 9.6 | 0.00 | 0.00 | 0.00 | 43 | 1007.5 |
| 20260506033325 | 71 | 128 | 5.2 | 11.3 | 0.00 | 0.00 | 0.00 | 42 | 1007.6 |
| 20260506032338 | 71 | 136 | 5.2 | 11.3 | 0.00 | 0.00 | 0.00 | 41 | 1007.5 |
| 20260506031340 | 71 | 221 | 6.1 | 13.0 | 0.00 | 0.00 | 0.00 | 41 | 1007.5 |
| 20260506030333 | 71 | 188 | 6.1 | 13.0 | 0.00 | 0.00 | 0.00 | 41 | 1007.5 |
| 20260506025341 | 71 | 165 | 5.2 | 10.4 | 0.00 | 0.00 | 0.00 | 40 | 1007.5 |
| 20260506024318 | 71 | 171 | 6.1 | 11.3 | 0.00 | 0.00 | 0.00 | 40 | 1007.5 |